Regional Weather Roundup
Issued by NWS

Home | Current Version | Previous Version | Text Only | Print | Product List | Glossary Off
Versions: 1 2 3 4 5 6 7 8 9 10 11 12 13 14 15 16 17 18 19 20 21 22 23 24 25 26 27 28 29 30 31 32 33 34 35 36 37 38 39 40 41 42 43 44 45 46 47 48 49 50

000
ASUS43 KLOT 280500
RWRIL

ILLINOIS REGIONAL WEATHER ROUNDUP
NATIONAL WEATHER SERVICE CHICAGO/ROMEOVILLE IL
1200 AM CDT THU AUG 28 2014

NOTE: "FAIR" INDICATES FEW OR NO CLOUDS BELOW 12,000 FEET WITH NO
SIGNIFICANT WEATHER AND/OR OBSTRUCTIONS TO VISIBILITY.

* THESE STATIONS ARE NOT UNDER NWS QUALITY CONTROL. THEY ALSO MAY NOT
  REPORT WEATHER SUCH AS PRECIPITATION OR FOG.

ILZ001-002-007-009-015-016-024-280600-
NORTHWEST ILLINOIS

CITY           SKY/WX    TMP DP  RH WIND       PRES   REMARKS
MOLINE         CLEAR     64  61  90 SE3       30.11S
STERLING*      PTCLDY    64  61  88 E5        30.13S
$$

ILZ003-004-008-010-011-017-018-280600-
NORTH CENTRAL ILLINOIS

CITY           SKY/WX    TMP DP  RH WIND       PRES   REMARKS
ROCKFORD       MOCLDY    66  62  87 E7        30.16R
$$

ILZ005-006-012>014-019>023-280600-
NORTHEAST ILLINOIS

CITY           SKY/WX    TMP DP  RH WIND       PRES   REMARKS
CHICAGO-OHARE  PTCLDY    68  59  73 NE7       30.13S
CHICAGO-MIDWAY PTCLDY    70  62  76 NE7       30.12S
AURORA         CLEAR     64  60  87 NE5       30.13F
WAUKEGAN       CLEAR     61  58  90 CALM      30.14R
DUPAGE AIRPORT CLEAR     63  60  90 N5        30.13S
WHEELING       CLEAR     67  61  81 N3        30.15R
NORTHERLY ISL    N/A     69  59  70 NE13        N/A
$$

LMZ740>746-280600-
SOUTHERN LAKE MICHIGAN

STATION/POSITION SKY/WX   TEMP    WIND        PRES    VSBY  WAVE
                          AIR SEA DIR/SP/G                  HT/PER
                          (F)     (DEG/KT/KT) (MB)    (MI)  (FT/S)
SOUTHERN BUOY              68 69   30/ 10/ 12 1020.5S         1/ 3
WAUKEGAN HARBOR            69      70/  9/ 11   N/A
HARRISON CRIB              69      60/ 13/ 14   N/A
BURNHAM HARBOR             69      40/ 10/ 11   N/A
CALUMET HARBOR             70      30/  7/ 12 1018.8S
MICHIGAN CITY              66      60/  9/ 11   N/A
MICHIGAN CITY 6N           68 73   90/ 10/ 12   N/A           3/ 4
ST. JOSEPH                 69 73   50/ 14/ 16   N/A           2/ 4
$$

ILZ025>027-034>036-040-047-049-050-058-095>099-280600-
WEST-CENTRAL ILLINOIS

CITY           SKY/WX    TMP DP  RH WIND       PRES   REMARKS
QUINCY         CLOUDY    73  71  93 NE5       30.07S
MACOMB*        PTCLDY    70  68  94 NE5       30.10F
$$

ILZ028>032-037-038-041>044-048-051>054-059>061-280600-
CENTRAL ILLINOIS

CITY           SKY/WX    TMP DP  RH WIND       PRES   REMARKS
DECATUR        PTCLDY    71  68  90 CALM      30.08F
PEORIA         MOCLDY    75  66  73 NE3       30.09F
SPRINGFIELD    MOCLDY    75  71  87 E6        30.07F
TAYLORVILLE    NOT AVBL
$$

ILZ033-039-045-046-055>057-062-063-280600-
EAST-CENTRAL ILLINOIS

CITY           SKY/WX    TMP DP  RH WIND       PRES   REMARKS
CHAMPAIGN      CLEAR     70  66  87 NE10      30.09F
MATTOON        PTCLDY    72  70  93 CALM      30.06F
$$

ILZ079-100>102-280600-
SOUTHWEST ILLINOIS

CITY           SKY/WX    TMP DP  RH WIND       PRES   REMARKS
BELLEVILLE     CLOUDY    72  71  99 N3        30.05F
$$

ILZ064>066-069>071-074>076-080>082-084>086-088>090-092>094-280600-
SOUTH-CENTRAL ILLINOIS

CITY           SKY/WX    TMP DP  RH WIND       PRES   REMARKS
CARBONDALE     CLOUDY    73  70  90 CALM      30.04F
MT. VERNON     CLOUDY    72  66  83 CALM      30.06R
$$

ILZ067-068-072-073-078-083-087-091-280600-
SOUTHEAST ILLINOIS

CITY           SKY/WX    TMP DP  RH WIND       PRES   REMARKS
LAWRENCEVILLE  PTCLDY    74  72  93 NW5       30.06S
$$

ABBREVIATIONS USED IN REMARKS
   TC - TEMPERATURE IN CELSIUS
  WCI - WIND CHILL INDEX
   HX - HEAT INDEX
  VSB - VISIBILITY
$$




USA.gov is the U.S. government's official web portal to all federal, state and local government web resources and services.